Regional Weather Roundup
Issued by NWS

Home | Current Version | Previous Version | Graphics & Text | Print | Product List | Glossary On
Versions: 1 2 3 4 5 6 7 8 9 10 11 12 13 14 15 16 17 18 19 20 21 22 23 24 25 26 27 28 29 30 31 32 33 34 35 36 37 38 39 40 41 42 43 44 45 46 47 48 49 50
000
ASUS43 KIND 311759
RWRIN

WEATHER ROUNDUP FOR INDIANA
NATIONAL WEATHER SERVICE INDIANAPOLIS IN
200 PM EDT THU JUL 31 2014

NOTE: "FAIR" INDICATES FEW OR NO CLOUDS BELOW 12,000 FEET WITH NO
SIGNIFICANT WEATHER AND/OR OBSTRUCTIONS TO VISIBILITY.

* - STATION DOES NOT REPORT WEATHER SUCH AS PRECIPITATION OR FOG.

+ - STATION NOT QUALITY CONTROLLED BY THE NATIONAL WEATHER SERVICE.
    USE DATA WITH CAUTION...ESPECIALLY DEWPOINT AND RELATIVE
    HUMIDITY OBSERVATIONS.

INZ001>003-010>013-019-020-311900-
NORTHWEST INDIANA

CITY           SKY/WX    TMP DP  RH WIND       PRES   REMARKS
GARY /AIRPORT/ MOSUNNY   81  59  47 W17       30.05F
KNOX *+        MOSUNNY   79  57  46 W9G16     30.05F
MONTICELLO +   SUNNY     77  62  59 W7        30.07S
RENSSELAER +   SUNNY     77  61  57 W6        30.08S
VALPARAISO     MOSUNNY   80  60  50 W10       30.06F
6HR MIN TEMP:  60; 6HR MAX TEMP:  80;


$$

LMZ046-743>745-311900-
SOUTHERN LAKE MICHIGAN

STATION/POSITION TIME  TEMP WIND        PRES
                       AIR  DIR/SP/G
                 (UTC) (F)  (DEG/KT/KT) (MB)
BURNS HARBOR     1700   73  280/ 10/ 12 1018.3S
MICHIGAN CITY    1700   71  240/ 11/ 13   N/A

$$

INZ004-005-014>016-021>024-311900-
NORTH CENTRAL INDIANA

CITY           SKY/WX    TMP DP  RH WIND       PRES   REMARKS
GOSHEN         MOSUNNY   80  59  48 W13G22    30.06S
6HR MIN TEMP:  58; 6HR MAX TEMP:  81;

PERU/GRISSOM   SUNNY     79  61  54 W12       30.08S
6HR MIN TEMP:  59; 6HR MAX TEMP:  79;

SOUTH BEND     MOSUNNY   81  57  43 W14       30.05F
6HR MIN TEMP:  59; 6HR MAX TEMP:  81;

WARSAW +       MOSUNNY   79  59  50 W10G18    30.07S

$$

INZ006>009-017-018-025>027-311900-
NORTHEAST INDIANA

CITY           SKY/WX    TMP DP  RH WIND       PRES   REMARKS
ANGOLA *+      PTSUNNY   79  57  47 W10       30.06S
FORT WAYNE     MOSUNNY   79  57  46 SW12      30.07F
6HR MIN TEMP:  59; 6HR MAX TEMP:  79;


$$

INZ028-029-035-036-043>045-051>053-311900-
WEST CENTRAL INDIANA

CITY           SKY/WX    TMP DP  RH WIND       PRES   REMARKS
GREENCASTLE +  SUNNY     77  61  57 W5        30.11S
LAFAYETTE      SUNNY     79  57  46 W8        30.08S
6HR MIN TEMP:  59; 6HR MAX TEMP:  79;

TERRE HAUTE    PTSUNNY   81  58  45 VRB7      30.09F
6HR MIN TEMP:  60; 6HR MAX TEMP:  81;


$$

INZ030>032-037>040-046>048-054>057-064-065-311900-
CENTRAL INDIANA

CITY           SKY/WX    TMP DP  RH WIND       PRES   REMARKS
COLUMBUS       PTSUNNY   79  59  50 W5        30.10F
INDIANAPOLIS   MOSUNNY   79  60  52 W10       30.09F
6HR MIN TEMP:  62; 6HR MAX TEMP:  79;

-EAGLE CREEK   MOSUNNY   78  57  48 SW7       30.09S
6HR MIN TEMP:  62; 6HR MAX TEMP:  78;

KOKOMO *+      SUNNY     79  61  53 W10       30.09S
MT COMFORT *+  MOSUNNY   79  61  53 W8        30.10S
SHELBYVILLE    SUNNY     80  60  50 W8        30.09F
6HR MIN TEMP:  62; 6HR MAX TEMP:  80;


$$

INZ033-034-041-042-049-050-058-059-311900-
EAST CENTRAL INDIANA

CITY           SKY/WX    TMP DP  RH WIND       PRES   REMARKS
MUNCIE         SUNNY     79  57  46 W10       30.09S
6HR MIN TEMP:  62; 6HR MAX TEMP:  79;


$$

INZ060-061-067>069-081>083-085>088-311900-
SOUTHWEST INDIANA

CITY           SKY/WX    TMP DP  RH WIND       PRES   REMARKS
EVANSVILLE     SUNNY     82  57  42 SW8       30.11S
6HR MIN TEMP:  63; 6HR MAX TEMP:  82;


$$

INZ062-063-066-070>080-084-089>092-311900-
SOUTH CENTRAL AND SOUTHEAST INDIANA

CITY           SKY/WX    TMP DP  RH WIND       PRES   REMARKS
BLOOMINGTON    MOSUNNY   79  61  53 W8        30.11S
6HR MIN TEMP:  61; 6HR MAX TEMP:  79;

SEYMOUR +      PTSUNNY   77  43  29 W3        30.10

$$




USA.gov is the U.S. government's official web portal to all federal, state and local government web resources and services.